SCP
0 0 0 0 0 0 0 0 0 0 0 0 0 0 0 0 0 0 0 0 0 0 0 0 0 0 0 0 0 0 0 0 0 0 0 0 0 0 0 0 0 0 0
0 0 0 0 0 0 0 0 0 0 0 0 0 0 0 0 0 0 0 0 0 0 0 0 0 0 0 0 0 0 0 0 0 0 0 0 0 0 0 0 0 0 0
0 0 0 0 0 0 0 0 0 0 0 0 0 0 0 0 0 0 0 0 0 0 0 0 0 0 0 0 0 0 0 0 0 0 0 0 0 0 0 0 0 0 0
0 0 0 0 0 0 0 0 0 0 0 0 0 0 0 0 0 0 0 0 0 0 0 0 0 0 0 0 0 0 0 0 0 0 0 0 0 0 0 0 0 0 0
0 0 0 0 0 0 0 0 0 0 0 0 0 0 0 0 0 0 0 0 0 0 0 0 0 0 0 0 0 0 0 0 0 0 0 0 0 0 0 0 0 0 0
0 0 0 0 0 0 0 0 0 0 0 0 0 0 0 0 0 0 0 0 0 0 0 0 0 0 0 0 0 0 0 0 0 0 0 0 0 0 0 0 0 0 0
0 0 0 0 0 0 0 0 0 0 0 0 0 0 0 0 0 0 0 0 0 0 0 0 0 0 0 0 0 0 0 0 0 0 0 0 0 0 0 0 0 0 0
0 0 0 0 0 0 0 0 0 0 0 0 0 0 0 0 0 0 0 0 0 0 0 0 0 0 0 0 0 0 0 0 0 0 0 0 0 0 0 0 0 0 0
0 0 0 0 0 0 0 0 0 0 0 0 0 0 0 0 0 0 0 0 0 0 0 0 0 0 0 0 0 0 0 0 0 0 0 0 0 0 0 0 0 0 0
0 0 0 0 0 0 0 0 0 0 0 0 0 0 0 0 0 0 0 0 0 0 0 0 0 0 0 0 0 0 0 0 0 0 0 0 0 0 0 0 0 0 0
0 0 0 0 0 0 0 0 0 0 0 0 0 0 0 0 0 0 0 0 0 0 0 0 0 0 0 0 0 0 0 0 0 0 0 0 0 0 0 0 0 0 0
0 0 0 0 0 0 0 0 0 0 0 0 0 0 0 0 0 0 0 0 0 0 0 0 0 0 0 0 0 0 0 0 0 0 0 0 0 0 0 0 0 0 0
0 0 0 0 0 0 0 0 0 0 0 0 0 0 0 0 0 0 0 0 0 0 0 0 0 0 0 0 0 0 0 0 0 0 0 0 0 0 0 0 0 0 0
0 0 0 0 0 0 0 0 0 0 0 0 0 0 0 0 0 0 0 0 0 0 0 0 0 0 0 0 0 0 0 0 0 0 0 0 0 0 0 0 0 0 0
0 0 0 0 0 0 0 0 0 0 0 0 0 0 0 0 0 0 0 0 0 0 0 0 0 0 0 0 0 0 0 0 0 0 0 0 0 0 0 0 0 0 0
0 0 0 0 0 0 0 0 0 0 0 0 0 0 0 0 0 0 0 0 0 0 0 0 0 0 0 0 0 0 0 0 0 0 0 0 0 0 0 0 0 0 0
0 0 0 0 0 0 0 0 0 0 0 0 0 0 0 0 0 0 0 0 0 0 0 0 0 0 0 0 0 0 0 0 0 0 0 0 0 0 0 0 0 0 0
0 0 0 0 0 0 0 0 0 0 0 0 0 0 0 0 0 0 0 0 0 0 0 0 0 0 0 0 0 0 0 0 0 0 0 0 0 0 0 0 0 0 0
0 0 0 0 0 0 0 0 0 0 0 0 0 0 0 0 0 0 0 0 0 0 0 0 0 0 0 0 0 0 0 0 0 0 0 0 0 0 0 0 0 0 0
0 0 0 0 0 0 0 0 0 0 0 0 0 0 0 0 0 0 0 0 0 0 0 0 0 0 0 0 0 0 0 0 0 0 0 0 0 0 0 0 0 0 0
0 0 0 0 0 0 0 0 0 0 0 0 0 0 0 0 0 0 0 0 0 0 0 0 0 0 0 0 0 0 0 0 0 0 0 0 0 0 0 0 0 0 0
0 0 0 0 0 0 0 0 0 0 0 0 0 0 0 0 0 0 0 0 0 0 0 0 0 0 0 0 0 0 0 0 0 0 0 0 0 0 0 0 0 0 0
0 0 0 0 0 0 0 0 0 0 0 0 0 0 0 0 0 0 0 0 0 0 0 0 0 0 0 0 0 0 0 0 0 0 0 0 0 0 0 0 0 0 0
0 0 0 0 0 0 0 0 0 0 0 0 0 0 0 0 0 0 0 0 0 0 0 0 0 0 0 0 0 0 0 0 0 0 0 0 0 0 0 0 0 0 0
0 0 0 0 0 0 0 0 0 0 0 0 0 0 0 0 0 0 0 0 0 0 0 0 0 0 0 0 0 0 0 0 0 0 0 0 0 0 0 0 0 0 0
0 0 0 0 0 0 0 0 0 0 0 0 0 0 0 0 0 0 0 0 0 0 0 0 0 0 0 0 0 0 0 0 0 0 0 0 0 0 0 0 0 0 0
Wind_Speed_500mb
74 74 76 78 79 80 81 85 85 87 87 81 74 67 61 54 45 37 31 27 23 19 15 12 10 10 11 11 11 13 18 21 26 28 29 32 38 45 52 56 62 67 71
74 76 74 77 79 82 85 86 88 90 87 82 75 67 60 51 44 36 30 26 22 18 15 15 15 14 13 14 16 18 21 26 29 33 34 37 42 47 55 60 65 71 77
79 83 77 79 79 81 83 87 91 96 90 83 75 69 61 53 45 37 30 25 22 18 18 18 17 16 17 18 20 23 24 28 33 39 40 42 48 51 57 60 66 72 78
84 88 82 84 85 84 85 87 93 95 89 83 76 70 62 54 46 40 33 30 20 26 25 24 21 21 22 23 25 26 29 32 36 41 45 48 52 56 62 68 72 74 81
89 92 88 85 85 85 85 90 98 98 92 86 79 72 64 57 50 42 36 23 30 32 32 29 27 27 27 28 28 32 35 38 41 46 50 54 57 60 63 68 72 78 83
90 94 92 88 90 88 86 95 104 101 96 90 82 75 69 61 52 44 30 31 37 39 37 35 33 32 31 32 33 36 41 44 46 53 55 59 62 62 62 66 71 77 87
90 93 98 92 96 94 93 100 108 105 99 92 85 78 72 64 58 47 41 41 44 47 45 43 40 36 36 37 38 41 46 49 51 55 60 63 65 62 63 66 70 76 83
86 91 96 98 99 97 97 103 106 104 99 93 87 81 75 66 58 52 47 47 51 56 51 50 49 44 43 44 44 47 50 52 52 55 60 63 62 56 50 59 72 78 82
78 86 91 94 97 99 99 103 105 103 99 94 88 84 76 68 57 58 60 55 58 62 58 55 58 54 51 52 55 54 55 58 56 58 61 60 47 51 56 64 72 73 83
66 74 80 85 91 93 94 97 100 98 95 92 88 81 73 59 65 59 77 65 61 68 63 60 68 63 59 59 63 62 64 64 64 64 61 62 63 59 55 59 69 68 64
48 53 60 71 79 82 85 89 91 91 89 87 84 78 66 68 77 73 81 71 64 71 66 70 73 65 64 67 68 68 69 68 69 67 67 66 66 63 66 70 66 62 62
31 37 44 53 65 72 72 75 78 77 77 81 79 70 69 79 80 78 80 72 68 72 74 81 74 65 67 70 70 72 69 63 61 67 67 70 71 73 76 72 69 67 63
16 21 26 35 46 57 64 65 67 66 69 68 69 79 86 87 80 81 78 68 65 77 86 84 75 73 69 70 73 70 55 56 62 69 69 72 74 76 75 72 72 71 69
9 15 20 27 32 35 40 48 54 60 66 73 85 87 83 80 83 74 73 66 73 86 86 84 80 73 72 69 66 60 57 60 63 67 69 69 72 74 76 74 76 74 76
14 12 13 18 24 33 42 50 58 66 73 78 80 78 78 75 66 63 66 71 73 75 74 75 75 74 72 68 66 65 65 64 62 61 65 68 71 71 77 76 76 73 71
12 10 10 12 15 19 25 32 38 43 47 50 55 59 62 65 63 57 53 53 58 61 67 70 68 67 66 64 64 63 63 61 60 63 66 68 71 72 75 76 72 67 68
15 11 9 9 13 18 24 31 35 37 41 48 52 50 53 54 53 51 51 51 52 51 54 54 57 57 58 58 57 58 62 67 71 72 71 68 67 70 71 70 66 61 60
5 2 3 8 12 16 21 25 30 33 37 38 38 42 44 46 46 44 45 43 42 41 42 48 53 56 57 59 65 70 74 72 71 69 67 65 63 63 63 62 59 54 53
9 10 14 17 19 22 25 29 31 33 36 39 41 39 37 35 34 37 33 34 38 41 45 50 55 61 65 68 69 69 69 68 67 65 62 59 56 55 57 55 52 48 47
16 17 19 22 24 26 28 29 29 30 32 35 37 38 39 39 38 37 37 39 43 46 48 51 53 54 55 58 60 62 60 56 54 53 52 50 47 47 51 48 48 45 43
18 19 21 21 22 23 24 24 25 25 27 30 32 34 38 38 38 39 40 40 41 43 46 48 49 49 48 49 50 50 49 47 45 45 46 44 43 46 43 45 46 44 41
16 17 18 18 19 20 21 22 23 25 28 30 32 36 41 34 36 36 36 39 42 43 46 46 44 41 40 41 43 44 45 44 41 43 46 45 42 42 42 42 41 40 36
18 18 19 20 21 23 24 25 26 27 28 29 30 33 35 35 36 38 40 42 42 40 42 41 40 38 39 40 42 44 46 43 42 43 43 42 40 38 37 38 36 35 33
17 19 20 22 23 24 25 25 26 27 28 30 32 35 38 41 42 40 39 39 39 38 37 38 41 42 41 41 43 45 45 43 43 42 42 41 37 35 35 36 34 33 33
18 20 21 22 23 24 25 26 29 31 34 36 39 41 42 41 38 37 37 38 38 38 37 39 41 43 43 41 42 43 44 44 43 41 40 40 39 37 35 35 34 34 34
20 21 22 24 26 29 31 33 36 39 40 41 41 40 39 40 39 38 38 39 39 40 41 40 42 43 42 42 42 42 42 41 40 40 42 40 40 37 36 35 34 34 34
Wind_Direction_500mb
218 218 220 222 221 220 220 217 211 205 200 200 199 198 197 197 195 194 192 194 194 195 191 198 211 223 237 252 270 289 294 292 295 304 317 325 330 331 331 333 333 336 339
220 219 225 225 225 223 219 216 210 206 203 203 201 199 199 198 197 195 197 198 200 204 210 213 221 230 241 260 276 283 287 289 296 305 315 323 326 327 324 325 329 334 336
223 222 225 228 230 227 223 216 210 206 205 203 203 201 200 200 197 193 196 203 207 217 222 225 234 245 256 267 279 287 289 291 297 302 311 318 317 317 316 319 325 331 335
227 224 227 230 232 230 225 216 210 208 208 206 204 203 203 201 198 199 201 206 221 231 229 234 242 254 263 275 285 290 290 289 294 301 303 306 307 313 314 318 323 329 330
229 228 226 231 232 230 224 216 210 209 209 209 206 204 204 203 203 203 207 222 240 235 235 238 247 258 266 274 285 291 291 291 294 295 296 300 304 310 314 317 321 324 328
231 231 228 229 231 230 225 216 212 210 210 209 208 208 206 205 205 206 214 235 242 242 241 244 250 258 267 274 282 287 289 290 293 292 296 299 303 306 310 313 317 324 324
235 232 229 230 232 229 223 215 213 212 212 210 210 210 210 210 208 209 233 233 241 250 244 248 251 259 266 273 280 285 288 293 294 295 296 297 299 304 305 310 316 317 315
239 235 233 230 230 228 223 218 215 215 214 214 213 214 213 211 210 226 230 235 243 250 249 252 255 258 265 269 274 279 284 288 290 289 290 290 291 297 304 301 309 313 311
242 238 234 232 230 227 223 220 218 217 216 216 217 217 215 213 220 237 231 241 243 251 252 258 259 260 264 268 273 277 282 286 289 289 288 289 287 276 279 297 311 312 312
242 239 237 233 231 229 227 223 220 220 221 220 220 220 219 218 230 233 236 250 243 251 254 263 264 263 265 269 273 277 281 288 289 287 285 284 286 287 291 301 308 308 307
249 246 241 237 233 231 228 224 222 222 222 222 223 223 218 228 238 237 240 254 248 254 256 266 267 266 269 270 272 276 281 283 285 289 292 294 295 294 297 301 304 306 304
251 248 243 237 234 231 229 227 226 227 226 226 224 221 239 235 246 247 245 255 251 255 260 267 268 270 267 268 273 276 278 282 280 285 286 288 289 292 296 299 306 308 306
250 245 242 238 236 234 230 230 231 232 232 229 228 234 247 246 252 252 251 252 251 256 260 266 270 269 271 271 270 275 276 269 273 280 283 283 286 290 294 301 305 306 305
204 210 213 214 216 219 226 230 231 230 229 233 238 246 252 252 249 259 256 252 249 252 260 266 270 274 274 274 276 280 279 278 280 281 283 286 289 291 294 298 301 305 304
140 166 192 212 222 226 230 236 236 238 241 245 248 246 248 255 263 269 267 258 253 255 259 261 263 267 271 274 278 280 281 281 281 283 282 285 286 287 292 296 300 302 302
147 160 177 194 213 225 231 234 237 240 242 246 250 253 259 262 262 262 259 254 252 252 252 259 264 268 272 277 279 279 279 281 284 286 286 286 288 289 291 294 296 299 299
132 141 158 193 214 229 237 243 246 247 249 250 253 254 255 257 257 256 255 255 255 255 257 261 264 269 274 277 277 279 284 287 288 289 290 290 290 289 290 291 293 295 296
133 169 256 255 250 247 246 246 247 248 251 253 256 257 253 249 250 253 256 260 257 260 257 262 267 270 272 275 279 283 287 289 291 293 294 296 293 291 291 290 291 293 294
239 255 259 260 261 262 261 257 253 248 244 243 242 250 252 254 260 259 259 257 258 260 262 264 267 270 274 279 283 286 289 292 294 296 296 294 294 293 291 290 289 289 291
268 272 273 272 271 267 263 259 254 248 243 242 243 244 250 253 258 262 261 263 267 269 270 271 274 278 282 285 287 289 291 293 294 294 296 297 297 292 290 289 287 288 287
277 278 278 276 272 269 265 260 257 253 249 247 246 248 251 253 257 262 267 270 270 272 276 280 283 285 287 288 289 292 296 298 298 298 298 298 295 291 291 288 287 286 285
298 294 288 282 276 269 264 259 254 250 246 243 243 245 254 257 260 263 265 269 274 278 281 283 287 290 292 293 295 298 299 302 302 298 297 297 294 290 288 286 286 285 282
276 270 266 263 260 256 252 249 247 246 248 251 254 257 263 266 268 271 273 275 278 281 284 289 293 296 298 299 300 300 300 301 300 299 300 296 293 291 288 286 285 283 280
268 267 265 263 261 260 261 261 260 258 256 256 258 261 264 268 272 274 276 279 283 285 289 292 296 298 297 297 296 297 297 297 296 297 294 294 294 292 288 285 283 281 278
278 277 276 274 270 266 263 261 262 264 266 267 267 268 269 269 271 273 276 278 281 284 286 289 290 292 294 295 295 295 294 293 293 292 289 290 290 288 286 282 281 277 271
280 274 269 264 263 265 266 268 269 269 269 269 270 270 270 272 273 274 274 275 277 279 281 283 285 288 291 292 293 293 293 293 291 288 286 284 283 283 282 280 276 271 268
Wind_Speed_850mb
74 74 76 78 79 80 81 85 85 87 87 81 74 67 61 54 45 37 31 27 23 19 15 12 10 10 11 11 11 13 18 21 26 28 29 32 38 45 52 56 62 67 71
74 76 74 77 79 82 85 86 88 90 87 82 75 67 60 51 44 36 30 26 22 18 15 15 15 14 13 14 16 18 21 26 29 33 34 37 42 47 55 60 65 71 77
79 83 77 79 79 81 83 87 91 96 90 83 75 69 61 53 45 37 30 25 22 18 18 18 17 16 17 18 20 23 24 28 33 39 40 42 48 51 57 60 66 72 78
84 88 82 84 85 84 85 87 93 95 89 83 76 70 62 54 46 40 33 30 20 26 25 24 21 21 22 23 25 26 29 32 36 41 45 48 52 56 62 68 72 74 81
89 92 88 85 85 85 85 90 98 98 92 86 79 72 64 57 50 42 36 23 30 32 32 29 27 27 27 28 28 32 35 38 41 46 50 54 57 60 63 68 72 78 83
90 94 92 88 90 88 86 95 104 101 96 90 82 75 69 61 52 44 30 31 37 39 37 35 33 32 31 32 33 36 41 44 46 53 55 59 62 62 62 66 71 77 87
90 93 98 92 96 94 93 100 108 105 99 92 85 78 72 64 58 47 41 41 44 47 45 43 40 36 36 37 38 41 46 49 51 55 60 63 65 62 63 66 70 76 83
86 91 96 98 99 97 97 103 106 104 99 93 87 81 75 66 58 52 47 47 51 56 51 50 49 44 43 44 44 47 50 52 52 55 60 63 62 56 50 59 72 78 82
78 86 91 94 97 99 99 103 105 103 99 94 88 84 76 68 57 58 60 55 58 62 58 55 58 54 51 52 55 54 55 58 56 58 61 60 47 51 56 64 72 73 83
66 74 80 85 91 93 94 97 100 98 95 92 88 81 73 59 65 59 77 65 61 68 63 60 68 63 59 59 63 62 64 64 64 64 61 62 63 59 55 59 69 68 64
48 53 60 71 79 82 85 89 91 91 89 87 84 78 66 68 77 73 81 71 64 71 66 70 73 65 64 67 68 68 69 68 69 67 67 66 66 63 66 70 66 62 62
31 37 44 53 65 72 72 75 78 77 77 81 79 70 69 79 80 78 80 72 68 72 74 81 74 65 67 70 70 72 69 63 61 67 67 70 71 73 76 72 69 67 63
16 21 26 35 46 57 64 65 67 66 69 68 69 79 86 87 80 81 78 68 65 77 86 84 75 73 69 70 73 70 55 56 62 69 69 72 74 76 75 72 72 71 69
9 15 20 27 32 35 40 48 54 60 66 73 85 87 83 80 83 74 73 66 73 86 86 84 80 73 72 69 66 60 57 60 63 67 69 69 72 74 76 74 76 74 76
14 12 13 18 24 33 42 50 58 66 73 78 80 78 78 75 66 63 66 71 73 75 74 75 75 74 72 68 66 65 65 64 62 61 65 68 71 71 77 76 76 73 71
12 10 10 12 15 19 25 32 38 43 47 50 55 59 62 65 63 57 53 53 58 61 67 70 68 67 66 64 64 63 63 61 60 63 66 68 71 72 75 76 72 67 68
15 11 9 9 13 18 24 31 35 37 41 48 52 50 53 54 53 51 51 51 52 51 54 54 57 57 58 58 57 58 62 67 71 72 71 68 67 70 71 70 66 61 60
5 2 3 8 12 16 21 25 30 33 37 38 38 42 44 46 46 44 45 43 42 41 42 48 53 56 57 59 65 70 74 72 71 69 67 65 63 63 63 62 59 54 53
9 10 14 17 19 22 25 29 31 33 36 39 41 39 37 35 34 37 33 34 38 41 45 50 55 61 65 68 69 69 69 68 67 65 62 59 56 55 57 55 52 48 47
16 17 19 22 24 26 28 29 29 30 32 35 37 38 39 39 38 37 37 39 43 46 48 51 53 54 55 58 60 62 60 56 54 53 52 50 47 47 51 48 48 45 43
18 19 21 21 22 23 24 24 25 25 27 30 32 34 38 38 38 39 40 40 41 43 46 48 49 49 48 49 50 50 49 47 45 45 46 44 43 46 43 45 46 44 41
16 17 18 18 19 20 21 22 23 25 28 30 32 36 41 34 36 36 36 39 42 43 46 46 44 41 40 41 43 44 45 44 41 43 46 45 42 42 42 42 41 40 36
18 18 19 20 21 23 24 25 26 27 28 29 30 33 35 35 36 38 40 42 42 40 42 41 40 38 39 40 42 44 46 43 42 43 43 42 40 38 37 38 36 35 33
17 19 20 22 23 24 25 25 26 27 28 30 32 35 38 41 42 40 39 39 39 38 37 38 41 42 41 41 43 45 45 43 43 42 42 41 37 35 35 36 34 33 33
18 20 21 22 23 24 25 26 29 31 34 36 39 41 42 41 38 37 37 38 38 38 37 39 41 43 43 41 42 43 44 44 43 41 40 40 39 37 35 35 34 34 34
20 21 22 24 26 29 31 33 36 39 40 41 41 40 39 40 39 38 38 39 39 40 41 40 42 43 42 42 42 42 42 41 40 40 42 40 40 37 36 35 34 34 34
Wind_Direction_850mb
218 218 220 222 221 220 220 217 211 205 200 200 199 198 197 197 195 194 192 194 194 195 191 198 211 223 237 252 270 289 294 292 295 304 317 325 330 331 331 333 333 336 339
220 219 225 225 225 223 219 216 210 206 203 203 201 199 199 198 197 195 197 198 200 204 210 213 221 230 241 260 276 283 287 289 296 305 315 323 326 327 324 325 329 334 336
223 222 225 228 230 227 223 216 210 206 205 203 203 201 200 200 197 193 196 203 207 217 222 225 234 245 256 267 279 287 289 291 297 302 311 318 317 317 316 319 325 331 335
227 224 227 230 232 230 225 216 210 208 208 206 204 203 203 201 198 199 201 206 221 231 229 234 242 254 263 275 285 290 290 289 294 301 303 306 307 313 314 318 323 329 330
229 228 226 231 232 230 224 216 210 209 209 209 206 204 204 203 203 203 207 222 240 235 235 238 247 258 266 274 285 291 291 291 294 295 296 300 304 310 314 317 321 324 328
231 231 228 229 231 230 225 216 212 210 210 209 208 208 206 205 205 206 214 235 242 242 241 244 250 258 267 274 282 287 289 290 293 292 296 299 303 306 310 313 317 324 324
235 232 229 230 232 229 223 215 213 212 212 210 210 210 210 210 208 209 233 233 241 250 244 248 251 259 266 273 280 285 288 293 294 295 296 297 299 304 305 310 316 317 315
239 235 233 230 230 228 223 218 215 215 214 214 213 214 213 211 210 226 230 235 243 250 249 252 255 258 265 269 274 279 284 288 290 289 290 290 291 297 304 301 309 313 311
242 238 234 232 230 227 223 220 218 217 216 216 217 217 215 213 220 237 231 241 243 251 252 258 259 260 264 268 273 277 282 286 289 289 288 289 287 276 279 297 311 312 312
242 239 237 233 231 229 227 223 220 220 221 220 220 220 219 218 230 233 236 250 243 251 254 263 264 263 265 269 273 277 281 288 289 287 285 284 286 287 291 301 308 308 307
249 246 241 237 233 231 228 224 222 222 222 222 223 223 218 228 238 237 240 254 248 254 256 266 267 266 269 270 272 276 281 283 285 289 292 294 295 294 297 301 304 306 304
251 248 243 237 234 231 229 227 226 227 226 226 224 221 239 235 246 247 245 255 251 255 260 267 268 270 267 268 273 276 278 282 280 285 286 288 289 292 296 299 306 308 306
250 245 242 238 236 234 230 230 231 232 232 229 228 234 247 246 252 252 251 252 251 256 260 266 270 269 271 271 270 275 276 269 273 280 283 283 286 290 294 301 305 306 305
204 210 213 214 216 219 226 230 231 230 229 233 238 246 252 252 249 259 256 252 249 252 260 266 270 274 274 274 276 280 279 278 280 281 283 286 289 291 294 298 301 305 304
140 166 192 212 222 226 230 236 236 238 241 245 248 246 248 255 263 269 267 258 253 255 259 261 263 267 271 274 278 280 281 281 281 283 282 285 286 287 292 296 300 302 302
147 160 177 194 213 225 231 234 237 240 242 246 250 253 259 262 262 262 259 254 252 252 252 259 264 268 272 277 279 279 279 281 284 286 286 286 288 289 291 294 296 299 299
132 141 158 193 214 229 237 243 246 247 249 250 253 254 255 257 257 256 255 255 255 255 257 261 264 269 274 277 277 279 284 287 288 289 290 290 290 289 290 291 293 295 296
133 169 256 255 250 247 246 246 247 248 251 253 256 257 253 249 250 253 256 260 257 260 257 262 267 270 272 275 279 283 287 289 291 293 294 296 293 291 291 290 291 293 294
239 255 259 260 261 262 261 257 253 248 244 243 242 250 252 254 260 259 259 257 258 260 262 264 267 270 274 279 283 286 289 292 294 296 296 294 294 293 291 290 289 289 291
268 272 273 272 271 267 263 259 254 248 243 242 243 244 250 253 258 262 261 263 267 269 270 271 274 278 282 285 287 289 291 293 294 294 296 297 297 292 290 289 287 288 287
277 278 278 276 272 269 265 260 257 253 249 247 246 248 251 253 257 262 267 270 270 272 276 280 283 285 287 288 289 292 296 298 298 298 298 298 295 291 291 288 287 286 285
298 294 288 282 276 269 264 259 254 250 246 243 243 245 254 257 260 263 265 269 274 278 281 283 287 290 292 293 295 298 299 302 302 298 297 297 294 290 288 286 286 285 282
276 270 266 263 260 256 252 249 247 246 248 251 254 257 263 266 268 271 273 275 278 281 284 289 293 296 298 299 300 300 300 301 300 299 300 296 293 291 288 286 285 283 280
268 267 265 263 261 260 261 261 260 258 256 256 258 261 264 268 272 274 276 279 283 285 289 292 296 298 297 297 296 297 297 297 296 297 294 294 294 292 288 285 283 281 278
278 277 276 274 270 266 263 261 262 264 266 267 267 268 269 269 271 273 276 278 281 284 286 289 290 292 294 295 295 295 294 293 293 292 289 290 290 288 286 282 281 277 271
280 274 269 264 263 265 266 268 269 269 269 269 270 270 270 272 273 274 274 275 277 279 281 283 285 288 291 292 293 293 293 293 291 288 286 284 283 283 282 280 276 271 268